Change the Weather History Date:

Monday, December 24, 2012

  Actual Average Record
Temperature  
Mean Temperature 21 °F 27 °F  
Max Temperature 32 °F 39 °F 56 °F (1999)
Min Temperature 10 °F 14 °F -22 °F (1998)
Degree Days  
Heating Degree Days 44 38  
Month to date heating degree days 762 905  
Since 1 July heating degree days 2105 2488  
Cooling Degree Days 0 0  
Month to date cooling degree days 0 0  
Year to date cooling degree days 1021 678  
Moisture  
Dew Point 15 °F    
Average Humidity 75    
Maximum Humidity 91    
Minimum Humidity 59    
Precipitation  
Precipitation 0.02 in 0.01 in 0.10 in (2007)
Month to date precipitation 0.06 0.30  
Year to date precipitation 7.06 14.14  
Sea Level Pressure  
Sea Level Pressure 29.97 in    
Wind  
Wind Speed 12 mph (East)    
Max Wind Speed 23 mph    
Max Gust Speed 29 mph    
Visibility 5 miles    
Events Snow    
T = Trace of Precipitation, MM = Missing Value Source: NWS Daily Summary

Daily Weather History Graph

Daily Weather History Graph

Search for Another Location

Airport or City:

Trip Planner

Search our weather history database for the weather conditions in past years. The results will help you decide how hot, cold, wet, or windy it might be!

Date:

Astronomy

Dec. 24, 2012 Rise Set
Actual Time 7:23 AM MST 4:30 PM MST
Civil Twilight 6:51 AM MST 5:01 PM MST
Nautical Twilight 6:16 AM MST 5:37 PM MST
Astronomical Twilight 5:41 AM MST 6:11 PM MST
Moon 2:00 PM MST (12/24) 4:02 AM MST (12/24)
Length of Visible Light 10h 10m
Length of Day
9h 06m
Waxing Gibbous, 89% of the Moon is Illuminated
Dec 24
Waxing Gibbous
Dec 28
Full
Jan 4
Last Quarter
Jan 11
New
Jan 18
First Quarter

Hourly Weather History & Observations

Time (MST) Temp. Windchill Dew Point Humidity Pressure Visibility Wind Dir Wind Speed Gust Speed Precip Events Conditions
12:53 AM 19.9 °F - 12.9 °F 74% 29.95 in 10.0 mi Calm Calm - N/A   Mostly Cloudy
1:53 AM 19.9 °F 14.9 °F 15.1 °F 81% 29.95 in 10.0 mi NE 3.5 mph - N/A   Overcast
2:53 AM 23.0 °F 14.7 °F 16.0 °F 74% 29.92 in 10.0 mi East 6.9 mph - N/A   Overcast
3:53 AM 25.0 °F 18.1 °F 17.1 °F 72% 29.89 in 10.0 mi East 5.8 mph - N/A   Overcast
4:53 AM 26.1 °F 15.6 °F 18.0 °F 71% 29.90 in 10.0 mi East 11.5 mph - N/A   Overcast
5:53 AM 27.0 °F 18.0 °F 18.0 °F 69% 29.91 in 10.0 mi East 9.2 mph - N/A   Overcast
6:53 AM 28.0 °F 20.8 °F 18.0 °F 66% 29.93 in 10.0 mi ESE 6.9 mph - N/A   Overcast
7:53 AM 28.0 °F 20.8 °F 18.0 °F 66% 29.94 in 10.0 mi ESE 6.9 mph - N/A   Overcast
8:53 AM 28.9 °F 19.2 °F 18.0 °F 64% 29.94 in 10.0 mi ESE 11.5 mph - N/A   Overcast
9:53 AM 28.9 °F 19.8 °F 19.0 °F 67% 29.96 in 10.0 mi SE 10.4 mph - N/A   Overcast
10:53 AM 30.0 °F 21.1 °F 19.0 °F 64% 29.94 in 10.0 mi SE 10.4 mph - N/A   Overcast
11:53 AM 30.9 °F 21.7 °F 19.0 °F 61% 29.90 in 10.0 mi ESE 11.5 mph - N/A   Overcast
12:53 PM 32.0 °F 19.8 °F 19.9 °F 61% 29.87 in 10.0 mi ESE 20.7 mph 26.5 mph N/A   Mostly Cloudy
1:53 PM 30.9 °F 18.7 °F 19.9 °F 64% 29.87 in 10.0 mi ESE 19.6 mph 26.5 mph N/A   Mostly Cloudy
2:53 PM 28.9 °F 15.8 °F 19.9 °F 69% 29.89 in 10.0 mi East 20.7 mph 28.8 mph N/A   Overcast
3:53 PM 26.1 °F 11.6 °F 19.0 °F 75% 29.90 in 10.0 mi East 21.9 mph - N/A   Overcast
4:53 PM 23.0 °F 10.1 °F 18.0 °F 81% 29.94 in 6.0 mi ESE 15.0 mph 24.2 mph N/A   Haze
5:14 PM 21.2 °F 6.8 °F 17.6 °F 86% 29.85 in 4.0 mi ESE 17.3 mph 26.5 mph 0.00 in Snow Light Snow
5:30 PM 21.2 °F 6.4 °F 17.6 °F 86% 29.86 in 2.0 mi ESE 18.4 mph 24.2 mph 0.00 in Snow Light Snow
5:51 PM 21.2 °F 6.4 °F 17.6 °F 86% 29.87 in 1.8 mi East 18.4 mph 24.2 mph 0.00 in Snow Light Snow
5:53 PM 21.0 °F 7.6 °F 18.0 °F 88% 29.99 in 1.5 mi ESE 15.0 mph 24.2 mph 0.00 in Snow Light Snow
6:09 PM 21.2 °F 6.4 °F 17.6 °F 86% 29.88 in 2.0 mi East 18.4 mph 28.8 mph 0.00 in Snow Light Snow
6:20 PM 21.2 °F 6.0 °F 17.6 °F 86% 29.89 in 4.0 mi ESE 19.6 mph 25.3 mph 0.00 in Snow Light Snow
6:41 PM 21.2 °F 6.0 °F 17.6 °F 86% 29.90 in 2.5 mi ESE 19.6 mph 25.3 mph 0.00 in Snow Light Snow
6:53 PM 19.9 °F 5.7 °F 17.1 °F 89% 30.03 in 2.5 mi East 16.1 mph 23.0 mph 0.00 in Snow Light Snow
7:53 PM 19.0 °F 6.1 °F 16.0 °F 88% 30.06 in 1.8 mi ESE 12.7 mph - 0.00 in Snow Light Snow
8:24 PM 19.4 °F 7.2 °F 15.8 °F 86% 29.96 in 1.0 mi East 11.5 mph - 0.00 in Snow Light Snow
8:53 PM 19.0 °F 6.8 °F 16.0 °F 88% 30.10 in 1.2 mi East 11.5 mph - 0.01 in Snow Light Snow
9:08 PM 19.4 °F 9.5 °F 15.8 °F 86% 29.98 in 1.5 mi East 8.1 mph - 0.00 in Snow Light Snow
9:20 PM 19.4 °F 10.4 °F 15.8 °F 86% 29.99 in 2.0 mi East 6.9 mph - 0.00 in Snow Light Snow
9:26 PM 17.6 °F 4.3 °F 14.0 °F 86% 29.99 in 1.8 mi NE 12.7 mph - 0.01 in Snow Light Snow
9:41 PM 12.2 °F -3.7 °F 10.4 °F 92% 30.00 in 1.0 mi NE 15.0 mph - 0.01 in Snow Light Snow
9:53 PM 12.9 °F -3.9 °F 9.0 °F 84% 30.15 in 1.5 mi NE 17.3 mph - 0.01 in Snow Light Snow
10:01 PM 12.2 °F -4.8 °F 8.6 °F 85% 30.01 in 2.5 mi NE 17.3 mph - 0.00 in Snow Light Snow
10:16 PM 12.2 °F -4.8 °F 8.6 °F 85% 30.02 in 1.8 mi NE 17.3 mph - 0.00 in Snow Light Snow
10:26 PM 12.2 °F -5.3 °F 8.6 °F 85% 30.02 in 1.2 mi NE 18.4 mph - 0.00 in Snow Light Snow
10:43 PM 10.4 °F -7.2 °F 6.8 °F 85% 30.03 in 2.0 mi NE 17.3 mph - 0.00 in Snow Light Snow
10:53 PM 10.9 °F -5.4 °F 7.0 °F 84% 30.18 in 2.0 mi NE 15.0 mph - 0.00 in Snow Light Snow
11:07 PM 10.4 °F -6.6 °F 6.8 °F 85% 30.04 in 1.5 mi NE 16.1 mph - 0.00 in Snow Light Snow
11:46 PM 10.4 °F -5.4 °F 6.8 °F 85% 30.06 in 2.0 mi NE 13.8 mph - 0.00 in Snow Light Snow
11:53 PM 10.0 °F -5.9 °F 6.1 °F 84% 30.20 in 2.0 mi NE 13.8 mph - 0.00 in Snow Light Snow